Tracking 19245 objects as of 15-Aug-2018
HD Live streaming from Space Station
objects crossing your sky now

IRIDIUM 55

Track IRIDIUM 55 now!
10-day predictions
IRIDIUM 55 is classified as:


NORAD ID: 25272
Int'l Code: 1998-019A
Perigee: 768.4 km
Apogee: 772.1 km
Inclination: 86.4 °
Period: 100.1 minutes
Semi major axis: 7141 km
RCS: 4.111 m2 (large)
Launch date: March 30, 1998
Source: United States (US)
Launch site: AIR FORCE WESTERN TEST RANGE (AFWTR)
aabbcc
Your satellite tracking list
Your tracking list is empty




NASA's NSSDC Master Catalog

Two Line Element Set (TLE):
1 25272U 98019A   18226.25426386  .00000155  00000-0  44153-4 0  9992
2 25272  86.4213 110.2167 0002572  84.6102 275.5390 14.38606942 66858
Source of the keplerian elements: AFSPC